Terug naar catalogus

STARLINK-35837

ActiefCommunicatieVLEO
NORAD 66840·PAYLOAD·🇺🇸 United States

Gelanceerd Dec 2, 2025 vanaf Vandenberg Space Force Base

Loading…

Volgende Passages (komende 24 uur)

TLE

VersSource: CelesTrak SupGP

Epoch: Sep 15, 2026, 03:59 UTC

1 66840C 25280V   26258.16645833 -.00003513  00000+0 -29443-3 0  2586
2 66840  70.0010 216.8058 0003394 270.3620 154.9799 14.98329682    10

Volg STARLINK-35837 in realtime met AllMySat

Download on the App Store